Location: Newark
(31.5350°N, 35.0986°E)
Time: 13:04:00
(UTC+00:00)

Vanguard 1 - Pass Details

Date: 28 September 2019
Orbit: 653 x 3830 km, 34.2° (Epoch: 20 October)

Event Time Altitude Azimuth Distance (km) Brightness Sun altitude
Rises 22:25:03 0° 254° (WSW) 6,892 - -57.9°
Reaches altitude 10° 22:29:06 10° 255° (WSW) 6,173 - -57.5°
Maximum altitude 22:51:13 88° 347° (NNW) 3,833 - -55.0°
Exits shadow 22:53:26 80° 64° (ENE) 3,862 12.7 -54.7°
Drops below altitude 10° 23:13:14 10° 79° (E) 6,142 14.4 -51.9°
Sets 23:17:15 0° 80° (E) 6,858 14.8 -51.3°
